Home   Weather   Oakville   Past weeks
Flag for Canada

Past Weather in Oakville, Ontario, Canada — Yesterday and Last 2 Weeks

Now
63 °F

Mild.


Feels Like: 63 °F
Forecast: N/A
Wind: 15 mph from Southwest

Location: Burlington Piers

Current Time: Mar 29, 2020 at 4:37:54 pm

Latest Report: Mar 29, 2020 at 4:00 pm


Visibility: N/A

Pressure: 29.52 "Hg

Humidity: 47%

Dew Point: 43 °F

Location of OakvilleLocation

Past Weather in Oakville — Graph

°F

Oakville Temperature Yesterday

Maximum temperature yesterday: 40 °F (at 8:00 pm)
Minimum temperature yesterday: 36 °F (at 12:00 am)
Average temperature yesterday: 39 °F

High & Low Weather Summary for the Past Weeks

 TemperatureHumidityPressure
High65 °F (Mar 20, 11:00 am)100% (Mar 23, 4:00 am)30.71 "Hg (Mar 23, 4:00 am)
Low22 °F (Mar 21, 8:00 am)40% (Mar 15, 5:00 pm)29.51 "Hg (Mar 29, 3:00 pm)
Average37 °F76%30.18 "Hg
* Reported Mar 14 3:00 pm — Mar 29 3:00 pm, Oakville. Weather by CustomWeather, © 2020

Note: Actual official high and low records may vary slightly from our data, if they occured in-between our weather recording intervals... More about our weather records

Oakville Weather History for the Previous 24 Hours

Scroll right to see more
 ConditionsComfort  
Time TempWeatherWind HumidityBarometerVisibility
3:00 pm
Sun, Mar 29
41 °FQuite cool.3 mph99%29.51 "HgN/A
2:00 pm40 °FChilly.8 mph100%29.51 "HgN/A
1:00 pm41 °FQuite cool.6 mph100%29.52 "HgN/A
12:00 pm41 °FQuite cool.2 mph99%29.55 "HgN/A
11:00 am41 °FQuite cool.10 mph99%29.56 "HgN/A
10:00 am38 °FChilly.14 mph100%29.59 "HgN/A
9:00 am40 °FChilly.15 mph98%29.62 "HgN/A
8:00 am39 °FChilly.15 mph99%29.68 "HgN/A
7:00 am39 °FChilly.16 mph98%29.69 "HgN/A
6:00 am39 °FChilly.14 mph99%29.73 "HgN/A
5:00 am39 °FChilly.16 mph99%29.77 "HgN/A
4:00 am39 °FChilly.17 mph99%29.81 "HgN/A
3:00 am40 °FChilly.15 mph99%29.85 "HgN/A
2:00 am40 °FChilly.17 mph99%29.83 "HgN/A
1:00 am40 °FChilly.17 mph99%29.86 "HgN/A
12:00 am40 °FChilly.16 mph100%29.89 "HgN/A
11:00 pm
Sat, Mar 28
40 °FChilly.17 mph99%29.90 "HgN/A
10:00 pm40 °FChilly.20 mph99%29.91 "HgN/A
9:00 pm40 °FChilly.17 mph98%29.92 "HgN/A
8:00 pm40 °FQuite cool.21 mph94%29.91 "HgN/A
7:00 pm40 °FQuite cool.20 mph92%29.88 "HgN/A
6:00 pm40 °FChilly.20 mph92%29.87 "HgN/A
5:00 pm40 °FChilly.22 mph91%29.86 "HgN/A
4:00 pm39 °FChilly.17 mph93%29.83 "HgN/A
Weather by CustomWeather, © 2020

See weather overview

Advertising